TimePST,TemperatureF,Dew PointF,Humidity,Sea Level PressureIn,VisibilityMPH,Wind Direction,Wind SpeedMPH,Gust SpeedMPH,PrecipitationIn,Events,Conditions,WindDirDegrees,DateUTC
12:53 AM,21.0,15.1,78,30.34,10.0,ESE,5.8,-,N/A,,Partly Cloudy,120,2013-12-04 08:53:00
1:53 AM,19.9,15.1,81,30.35,10.0,ESE,5.8,-,N/A,,Clear,120,2013-12-04 09:53:00
2:53 AM,19.0,12.9,77,30.36,10.0,ESE,5.8,-,N/A,,Clear,120,2013-12-04 10:53:00
3:53 AM,19.0,14.0,81,30.36,10.0,Calm,Calm,-,N/A,,Clear,0,2013-12-04 11:53:00
4:53 AM,19.0,14.0,81,30.36,10.0,East,5.8,-,N/A,,Clear,100,2013-12-04 12:53:00
5:53 AM,19.0,12.9,77,30.38,10.0,ESE,4.6,-,N/A,,Clear,110,2013-12-04 13:53:00
6:53 AM,17.1,12.0,81,30.39,10.0,ESE,6.9,-,N/A,,Clear,110,2013-12-04 14:53:00
7:50 AM,17.6,10.4,73,30.38,10.0,ESE,5.8,-,N/A,,Partly Cloudy,120,2013-12-04 15:50:00
7:53 AM,17.1,10.9,77,30.40,10.0,ESE,5.8,-,N/A,,Partly Cloudy,120,2013-12-04 15:53:00
8:53 AM,23.0,16.0,74,30.42,10.0,Calm,Calm,-,N/A,,Clear,0,2013-12-04 16:53:00
9:53 AM,25.0,18.0,75,30.43,10.0,Calm,Calm,-,N/A,,Clear,0,2013-12-04 17:53:00
10:53 AM,28.9,16.0,58,30.43,10.0,Calm,Calm,-,N/A,,Clear,0,2013-12-04 18:53:00
11:53 AM,32.0,14.0,48,30.40,10.0,Variable,5.8,-,N/A,,Clear,0,2013-12-04 19:53:00
12:53 PM,33.1,12.0,42,30.39,10.0,Calm,Calm,-,N/A,,Clear,0,2013-12-04 20:53:00
1:53 PM,33.1,10.9,40,30.37,10.0,Calm,Calm,-,N/A,,Clear,0,2013-12-04 21:53:00
2:53 PM,34.0,10.9,38,30.37,10.0,Calm,Calm,-,N/A,,Clear,0,2013-12-04 22:53:00
3:53 PM,30.9,12.0,46,30.37,10.0,ESE,6.9,-,N/A,,Clear,110,2013-12-04 23:53:00
4:53 PM,27.0,14.0,58,30.38,10.0,ESE,6.9,-,N/A,,Clear,110,2013-12-05 00:53:00
5:53 PM,23.0,12.9,65,30.39,10.0,ENE,3.5,-,N/A,,Clear,60,2013-12-05 01:53:00
6:53 PM,24.1,14.0,65,30.40,10.0,Calm,Calm,-,N/A,,Clear,0,2013-12-05 02:53:00
7:53 PM,21.0,12.9,71,30.41,10.0,ENE,3.5,-,N/A,,Clear,70,2013-12-05 03:53:00
8:53 PM,19.9,12.0,71,30.41,10.0,ESE,8.1,-,N/A,,Clear,110,2013-12-05 04:53:00
9:53 PM,21.0,14.0,74,30.42,10.0,Calm,Calm,-,N/A,,Clear,0,2013-12-05 05:53:00
10:53 PM,17.1,10.0,74,30.42,10.0,East,5.8,-,N/A,,Clear,100,2013-12-05 06:53:00
11:53 PM,17.1,10.0,74,30.42,10.0,ESE,5.8,-,N/A,,Clear,110,2013-12-05 07:53:00